Theta_e
318 314 314 316 317 321 320 320 319 318 317 314 314 316 318 320 322 325 327 328 329 329 328 328 328 328 328 329 330 329 329 329 328 328 328 327 326 326 324 323 323 325 328 329 329 331 333 333 334 334 332 331 328 325 320 314 312 311 311 310 312 314 316 316 315 314 314 313 312 312 312 312 311 311 312 311 311 312 311 311 311 311 311 311 310
317 313 314 316 317 320 320 320 318 318 317 315 315 316 319 321 322 324 327 328 329 328 327 328 328 328 328 329 329 328 329 329 328 328 327 326 324 322 319 318 319 320 322 323 324 325 326 329 330 330 328 326 323 318 313 310 312 312 311 312 313 315 315 314 313 312 313 312 312 312 312 312 312 311 312 312 312 312 311 311 311 311 311 311 311
316 314 314 315 317 319 319 319 318 318 317 315 314 316 319 321 323 324 326 328 328 327 326 327 329 328 328 329 329 329 328 328 328 326 324 322 321 319 318 319 321 323 323 322 321 320 320 322 322 324 323 321 318 313 310 311 312 312 312 312 313 313 313 312 311 311 312 312 312 312 312 312 312 312 312 312 311 311 311 310 311 311 311 311 311
316 314 313 315 316 317 319 319 318 318 317 315 315 316 320 321 323 324 326 327 328 326 326 328 329 329 329 329 329 329 327 327 326 322 320 319 318 318 320 323 324 323 320 317 314 312 312 313 314 316 317 315 312 310 310 311 310 310 311 311 311 311 311 311 311 311 311 311 311 311 311 311 312 312 312 312 311 312 311 311 311 311 311 311 312
316 314 313 315 316 318 319 319 319 319 318 316 315 317 319 322 323 324 326 327 327 326 327 328 329 329 328 329 328 328 327 326 322 320 319 318 319 321 324 323 320 316 312 309 308 308 309 309 308 310 312 311 310 310 310 310 311 311 311 311 312 311 312 312 312 312 312 312 312 313 313 314 314 314 314 314 314 314 314 314 314 314 314 313 313
316 313 313 314 317 318 319 320 319 319 318 317 315 316 320 322 323 325 326 327 327 326 328 329 328 328 328 327 328 328 327 323 320 319 322 322 323 324 322 317 311 308 307 307 308 309 310 309 308 308 309 310 310 311 312 313 313 313 313 313 313 313 313 313 314 314 315 315 315 316 316 316 316 316 316 317 317 317 317 317 317 317 317 317 316
316 313 313 314 317 318 319 321 320 319 319 317 315 315 319 322 323 325 327 328 327 327 328 328 329 328 328 327 327 327 325 321 318 320 326 326 324 322 317 310 307 308 307 307 308 309 308 308 308 310 312 313 313 313 314 316 316 315 315 314 314 314 314 315 316 316 317 317 316 317 317 317 317 317 317 318 319 319 319 319 319 319 319 319 319
316 313 313 314 316 318 319 320 320 319 319 318 315 315 319 323 324 325 327 328 328 328 328 328 329 329 328 328 327 325 323 320 318 320 326 325 321 317 311 308 308 308 307 308 309 308 308 309 313 315 317 317 318 318 318 319 318 317 317 316 315 316 316 317 317 318 317 317 317 317 317 317 318 318 318 319 320 321 321 321 321 321 320 320 320
316 313 312 314 316 317 319 319 319 319 319 318 316 315 318 322 323 324 326 327 328 328 328 329 329 329 328 328 326 324 321 319 317 318 323 324 316 311 308 308 309 307 308 309 310 310 311 314 317 320 321 322 322 322 322 321 321 320 320 319 318 319 319 320 320 319 319 319 318 318 317 318 318 319 319 319 320 320 320 321 321 321 321 321 321
315 312 312 314 316 318 319 319 319 320 320 319 317 315 317 321 323 324 325 326 328 328 327 328 329 329 329 328 326 322 320 318 317 317 322 323 315 308 308 309 309 308 308 310 312 313 315 318 320 322 324 326 326 325 323 323 324 325 324 323 323 323 323 324 324 323 324 323 321 321 321 320 321 321 320 319 319 320 320 321 321 322 322 322 322
315 312 313 314 316 319 319 320 320 320 320 320 317 315 316 320 322 323 324 326 326 327 328 329 329 329 328 327 325 322 319 317 316 316 320 323 316 309 309 309 309 308 308 311 314 317 318 320 322 325 327 328 327 326 324 324 327 327 327 326 326 326 327 327 327 326 327 327 325 326 326 325 326 326 324 321 320 319 320 321 321 321 322 323 323
314 312 313 314 316 318 319 320 319 320 320 320 318 316 315 318 321 323 323 324 325 326 328 329 329 329 328 326 323 321 318 316 315 315 318 321 318 312 309 309 309 309 308 310 314 318 320 321 324 326 328 328 328 326 325 325 326 328 327 327 327 328 328 328 328 328 328 329 328 328 329 329 330 329 327 325 323 321 321 321 321 321 322 322 323
315 313 313 314 315 316 319 320 320 320 321 320 319 317 315 316 319 322 323 324 325 325 328 329 329 328 326 324 322 319 317 315 314 314 316 319 319 313 310 310 309 309 309 309 311 316 319 321 323 325 327 327 327 327 326 325 325 326 326 327 327 328 328 328 328 328 329 330 330 329 330 330 331 330 329 328 328 327 326 324 323 322 322 322 322
316 313 313 314 314 316 318 319 320 320 321 321 319 318 316 316 317 320 322 323 324 324 327 328 328 327 325 322 319 317 315 313 313 312 313 317 319 315 310 310 310 309 309 309 310 313 317 320 321 323 325 326 326 325 325 325 324 324 325 326 327 327 328 328 327 328 328 330 331 330 330 330 331 331 330 331 331 331 330 328 325 323 323 323 323
317 314 313 313 313 315 317 318 318 319 320 321 320 318 317 315 317 319 321 323 324 325 326 327 327 326 323 320 317 315 312 311 311 311 311 314 317 316 312 310 310 310 310 309 309 310 314 318 320 321 323 324 325 325 325 325 323 324 325 326 326 327 328 328 327 327 328 330 331 330 330 330 331 331 331 331 331 331 331 330 328 325 324 324 323
318 313 313 313 313 314 315 316 317 319 320 320 320 318 316 316 317 318 321 323 325 326 327 327 327 325 322 318 315 312 310 310 310 311 311 312 315 316 314 310 310 310 310 310 310 310 312 315 318 319 321 322 323 325 326 326 325 325 326 326 326 326 327 328 329 328 328 330 331 330 330 330 331 331 331 331 331 331 331 331 330 328 327 326 324
319 314 313 313 313 313 314 314 315 318 320 321 320 319 317 316 316 318 321 325 326 327 328 327 326 323 320 316 312 309 309 309 310 310 310 311 313 314 315 312 310 310 311 310 310 310 311 313 316 317 319 321 321 323 324 325 326 327 327 326 326 327 328 328 329 328 328 329 330 331 330 331 331 331 331 331 331 332 331 332 331 331 330 329 327
321 316 316 315 315 314 314 314 315 318 321 321 321 319 317 316 317 318 323 326 328 328 329 328 326 323 318 313 309 309 309 309 310 310 310 311 311 313 313 313 311 311 311 311 311 311 311 311 313 315 316 318 320 321 322 324 326 327 328 327 327 328 329 329 329 329 328 328 328 328 329 330 331 332 331 331 331 332 332 332 332 332 331 330 329
323 320 321 319 319 317 314 314 314 318 320 321 321 319 317 316 316 320 325 328 328 329 330 329 326 322 316 311 309 309 309 309 310 310 310 310 311 311 312 313 313 311 311 311 311 311 311 311 311 312 314 316 318 320 322 323 325 327 327 328 328 329 330 330 330 329 328 328 326 325 326 328 330 331 331 331 331 331 332 332 331 331 332 331 330
326 326 325 323 322 319 317 314 315 317 319 320 320 319 317 315 318 324 328 329 329 330 330 330 327 321 314 311 309 309 309 309 309 309 310 310 310 311 311 312 313 313 312 311 311 311 311 311 311 311 312 313 316 318 321 323 325 325 327 327 326 328 331 331 330 329 328 327 325 324 325 328 330 331 331 331 331 332 332 331 330 331 331 332 331
331 331 329 327 324 320 319 316 315 317 318 320 320 320 316 315 324 329 329 330 331 331 331 330 327 320 314 311 309 309 309 309 310 309 309 310 310 310 311 312 312 313 313 313 312 311 312 312 312 312 312 313 314 315 318 321 323 324 326 325 322 325 330 331 330 329 327 326 325 326 328 329 330 331 331 331 331 332 332 331 331 331 331 332 332
337 336 331 329 327 321 319 317 315 316 318 320 321 320 317 318 330 333 331 332 332 332 331 331 327 320 315 311 309 309 309 309 309 309 309 309 310 310 311 311 312 313 314 314 313 312 312 313 313 313 314 314 314 314 316 317 319 321 322 322 320 324 330 331 329 328 327 327 327 328 329 329 330 330 331 332 332 332 332 332 332 332 332 332 332
341 339 334 333 328 322 319 317 316 316 318 321 320 321 321 325 334 336 335 335 334 332 332 330 327 320 315 311 309 309 309 310 310 310 310 310 310 310 310 310 310 312 314 315 315 313 313 313 314 315 316 316 315 315 316 316 318 318 319 320 322 326 328 328 328 328 328 328 328 329 328 329 329 330 331 332 332 332 332 333 332 331 332 332 332
342 340 337 335 330 324 321 318 316 316 318 321 322 322 325 330 335 337 336 336 336 334 332 330 326 320 315 311 309 309 309 310 309 310 310 310 311 310 310 310 310 311 312 314 315 315 314 315 315 316 317 317 317 316 317 317 317 318 318 319 322 326 327 327 328 328 328 328 329 329 330 329 329 330 331 331 332 332 332 332 331 330 331 332 332
342 340 339 337 334 329 323 318 317 319 320 322 323 323 324 329 334 337 336 336 336 333 331 330 326 320 315 311 309 309 309 309 310 310 310 310 310 311 311 311 311 311 310 311 312 313 315 316 316 317 316 315 316 317 316 316 316 318 319 320 322 325 326 327 329 329 329 329 330 331 332 331 330 330 330 331 331 332 333 332 331 331 332 332 332
342 341 340 340 338 333 325 319 318 320 322 321 324 324 322 326 334 336 335 336 336 332 332 330 325 320 314 310 309 309 309 309 309 309 310 310 310 311 311 311 311 311 311 312 311 311 311 312 313 314 315 317 321 323 323 323 325 327 328 328 328 328 329 330 331 331 331 332 332 332 333 332 331 331 331 331 331 332 333 332 331 332 332 332 332
342 342 342 341 339 332 324 319 319 318 319 321 325 326 325 327 332 333 334 336 335 331 331 329 325 318 313 310 310 310 310 310 310 310 311 311 311 312 313 314 315 316 317 318 319 317 315 314 315 316 320 325 328 330 331 331 331 332 332 332 332 332 331 332 332 332 332 332 332 332 332 332 332 332 332 332 332 332 332 332 332 332 332 332 332
343 342 342 341 338 332 323 319 318 317 319 323 328 328 327 329 331 333 334 335 333 330 330 329 323 317 314 314 313 314 313 312 311 311 313 314 315 315 316 319 322 325 327 327 329 329 327 325 326 327 329 331 332 333 333 333 333 332 331 332 331 332 332 332 332 331 331 331 332 332 332 332 332 332 332 332 332 332 332 332 331 332 332 332 332
342 342 342 341 337 330 323 319 317 317 321 324 328 330 330 331 332 333 334 334 331 329 330 328 321 317 319 320 319 318 317 315 314 314 316 319 320 321 323 326 329 332 333 333 334 334 334 333 333 333 333 333 333 333 333 332 332 331 331 331 331 331 332 331 331 330 330 330 331 331 330 331 331 331 331 331 332 332 332 332 332 332 332 332 333
343 343 341 340 337 330 324 319 317 318 320 321 327 332 333 334 334 333 333 333 331 329 329 327 320 318 323 324 324 323 320 318 318 319 323 325 326 327 329 331 332 333 334 335 335 334 334 334 334 334 333 333 333 332 331 331 331 330 330 330 331 331 330 329 329 329 329 329 329 328 328 329 329 330 331 331 331 332 332 332 332 332 332 332 332
343 342 341 339 337 330 325 320 317 318 318 319 327 332 334 334 332 331 333 333 329 327 328 326 320 320 326 327 326 325 322 320 320 322 328 330 330 331 332 332 332 332 333 333 333 333 334 333 333 332 332 331 331 331 330 329 329 329 329 328 328 328 328 328 328 327 327 327 327 328 328 329 329 330 330 330 330 331 331 331 332 332 331 332 332
343 343 341 339 337 331 325 321 318 317 316 319 326 331 334 333 331 332 335 332 326 327 328 323 320 324 329 328 327 325 324 322 322 326 330 332 333 333 334 333 332 332 332 333 333 333 333 333 332 330 330 330 330 329 328 328 328 328 327 327 327 327 328 327 326 326 326 326 327 327 328 329 330 330 330 330 330 330 330 330 331 331 330 331 331
344 343 341 339 337 332 327 322 317 315 315 318 323 329 333 333 331 333 334 330 326 327 326 321 322 328 330 328 326 325 324 324 325 328 331 332 333 334 333 333 331 331 332 333 333 333 333 333 331 330 330 330 329 328 328 328 327 327 327 326 326 327 327 327 326 326 326 326 326 327 328 329 330 330 330 330 329 329 329 329 329 330 330 330 331
344 343 341 340 337 334 331 325 318 315 315 317 320 325 330 331 330 332 332 329 328 327 323 322 326 330 329 326 324 324 324 324 326 328 329 330 332 334 333 331 330 330 331 332 331 332 333 333 331 331 331 330 329 328 328 328 327 327 326 326 327 328 327 327 327 327 327 327 327 328 328 329 330 330 330 329 329 329 329 330 329 329 330 330 330
345 343 341 339 337 336 335 329 322 315 314 316 318 321 326 328 329 329 329 330 329 326 323 325 328 329 328 327 325 325 324 325 326 326 327 329 331 333 332 330 330 330 330 331 331 332 333 332 331 331 332 331 330 330 329 328 328 327 327 327 328 328 328 327 327 327 326 327 327 328 329 330 330 330 329 329 329 329 329 330 330 330 329 330 330
345 343 342 340 336 334 334 331 324 317 314 315 316 319 321 324 326 325 326 330 329 325 325 329 330 329 328 328 327 326 326 326 325 325 325 327 331 334 333 331 330 331 332 331 331 332 331 331 330 330 332 332 332 330 329 328 328 327 327 327 328 328 327 327 326 326 326 327 327 329 330 330 331 330 329 329 329 329 329 329 330 329 330 330 330
344 342 340 338 334 333 333 330 325 318 315 315 315 318 319 322 324 323 324 329 328 325 327 330 331 330 329 329 329 329 328 327 326 325 326 329 332 335 334 332 331 332 333 331 331 332 330 330 330 329 330 331 330 329 328 328 327 327 326 326 326 327 326 326 325 326 327 327 328 329 330 330 330 329 328 328 328 329 329 329 329 329 329 329 329
343 342 341 340 338 338 336 333 329 322 316 315 314 315 318 322 323 321 323 328 329 326 328 331 332 331 330 330 331 331 330 329 327 328 330 333 335 335 333 332 332 333 333 332 332 331 329 329 329 329 328 328 328 328 327 327 327 326 325 324 324 323 324 324 325 326 328 328 328 328 328 327 327 328 328 328 328 328 328 328 327 327 327 328 329
343 343 344 343 340 339 337 334 332 326 319 315 313 317 323 325 324 322 325 328 328 328 331 333 332 331 331 331 332 332 332 330 331 332 333 335 334 333 332 332 333 333 333 333 332 331 330 329 329 329 329 328 328 327 326 326 325 324 323 321 320 321 322 322 324 326 328 328 327 327 325 325 327 327 327 326 326 326 327 327 327 327 327 327 327
343 345 345 343 339 338 338 334 330 324 320 316 316 324 329 327 322 323 326 328 328 330 333 333 332 332 332 332 333 333 332 331 332 333 333 334 333 331 331 333 334 334 334 334 332 331 331 330 330 330 330 329 328 327 326 324 322 321 319 318 319 319 319 321 323 327 329 328 326 326 325 325 327 326 326 325 324 324 325 326 326 326 326 325 325
344 345 344 342 340 339 338 335 331 323 320 319 317 322 325 322 321 324 326 327 329 333 334 333 333 333 333 333 333 332 332 333 334 333 332 333 331 330 331 334 334 334 334 333 332 332 332 332 331 331 331 330 329 328 325 323 321 319 316 315 316 316 319 322 323 326 329 329 327 326 325 325 326 327 327 325 323 322 322 322 323 323 323 323 323
344 345 344 342 341 340 337 334 332 326 325 324 319 318 318 317 321 324 324 326 330 333 334 334 333 333 333 333 333 332 332 333 335 333 332 332 330 328 331 334 334 333 332 332 333 333 333 332 331 331 331 330 329 327 325 323 321 318 313 314 316 317 320 322 323 326 326 324 323 324 324 324 324 325 325 323 320 318 319 319 320 320 321 322 322
344 345 344 343 343 340 336 333 333 331 329 328 325 324 322 319 321 321 322 327 331 333 334 335 334 333 333 333 333 333 332 333 334 333 332 330 329 329 332 334 332 331 331 332 333 334 333 332 331 331 332 331 330 328 326 325 322 318 315 317 317 318 323 322 321 322 321 320 322 322 323 322 320 320 318 317 315 315 316 318 320 319 320 321 321
343 344 344 344 344 341 335 334 335 333 330 330 329 328 327 325 323 321 324 329 332 333 335 335 334 334 334 333 333 332 331 332 334 333 330 329 330 331 333 332 330 329 331 332 333 333 333 332 331 331 331 332 331 329 327 325 323 320 318 320 317 320 327 323 318 320 322 322 322 320 320 319 316 315 315 313 313 314 315 319 321 320 321 322 322
343 344 344 344 344 342 337 335 335 334 332 331 332 332 331 327 324 325 329 331 332 334 335 335 334 334 334 333 331 331 331 333 334 331 330 331 331 331 331 330 330 330 331 332 333 333 333 332 333 332 332 332 331 330 328 325 324 320 318 321 321 324 327 321 319 324 323 320 319 318 316 315 313 312 312 312 313 315 316 320 321 320 321 322 323
343 343 344 344 344 343 339 336 337 336 335 334 333 334 333 329 327 329 331 332 333 334 334 334 334 333 333 331 330 331 332 334 334 332 332 333 331 329 330 330 331 331 332 333 334 334 334 333 333 333 332 332 331 330 328 325 323 319 317 318 319 321 322 320 322 325 322 318 318 317 314 313 312 311 312 314 316 318 318 319 319 318 319 320 320
342 343 343 344 343 340 338 337 338 337 336 337 335 333 333 330 330 332 333 333 334 333 334 334 334 333 332 330 330 333 334 335 334 334 334 334 332 331 331 332 331 332 332 333 333 333 333 333 333 332 331 331 330 328 327 324 323 321 318 318 318 317 318 319 320 321 321 320 318 316 313 311 310 310 311 313 316 318 317 317 317 317 317 316 316
341 342 342 342 340 338 338 337 337 338 337 337 336 333 332 332 333 334 334 335 334 333 334 334 333 332 330 329 332 334 335 335 335 334 334 334 333 333 333 333 332 332 332 332 333 333 333 332 331 330 329 329 328 326 323 321 322 321 318 317 317 315 315 315 315 315 317 318 318 314 311 309 308 307 308 308 312 315 315 315 315 315 314 312 313
340 341 341 341 339 338 339 337 337 338 338 338 336 334 333 333 335 335 334 334 334 334 334 333 332 331 330 331 334 335 335 335 334 333 333 334 333 334 333 332 332 331 332 332 332 332 331 329 328 327 327 326 323 321 319 317 317 317 315 315 314 314 313 313 312 312 311 314 317 314 311 308 306 306 306 305 306 309 309 309 309 309 309 309 309
340 340 340 341 339 338 339 337 338 339 339 338 338 336 334 334 335 335 334 333 334 334 334 333 332 332 331 333 334 335 334 334 333 332 332 333 333 333 332 332 331 331 331 331 331 330 328 326 325 325 324 322 318 316 315 314 314 313 313 313 313 312 312 311 310 310 311 314 315 314 313 310 307 308 308 306 307 310 310 308 307 307 307 307 308
339 339 339 341 339 338 339 339 339 340 340 338 337 337 336 334 335 334 333 334 334 333 333 333 334 333 332 333 335 335 334 334 333 332 332 333 332 331 331 330 330 330 331 330 327 325 324 323 323 322 319 316 315 314 313 313 313 313 312 312 312 311 310 310 309 310 312 313 312 312 312 309 307 310 309 305 307 312 313 310 306 306 305 305 306
Wind_Speed
26 25 23 22 24 23 22 20 19 19 18 18 17 17 16 16 16 16 15 14 14 13 12 11 11 11 11 11 11 11 10 10 10 10 9 9 8 8 7 6 6 7 7 7 7 7 7 7 6 6 6 5 5 4 4 3 2 3 4 7 9 12 13 13 12 11 11 12 12 12 10 9 9 8 7 8 8 8 8 8 7 6 6 6 6
28 26 23 23 23 24 23 21 20 20 19 18 18 18 17 16 16 16 16 15 14 13 12 12 11 11 11 12 11 11 10 9 9 9 8 7 7 6 6 7 8 7 7 7 7 7 6 6 6 5 5 5 4 4 5 6 8 10 12 13 14 14 13 12 12 13 12 12 12 11 10 9 8 7 7 8 8 8 8 8 7 6 5 5 6
28 27 24 23 23 24 23 22 21 20 19 19 19 19 18 17 17 16 16 15 14 13 12 12 11 11 11 11 11 10 9 9 8 7 7 6 7 8 9 9 9 8 6 5 5 6 6 6 6 5 5 4 4 5 8 11 14 16 17 16 16 14 13 12 13 13 13 13 12 11 11 10 9 8 8 9 9 9 9 8 8 7 7 6 6
28 27 25 24 23 23 23 23 22 21 20 19 19 19 19 18 17 17 16 15 14 13 12 12 11 11 11 11 10 9 9 8 7 7 7 8 9 10 11 10 8 7 5 4 4 4 5 5 6 6 6 5 7 9 12 15 17 18 18 17 16 15 15 14 14 14 14 13 13 12 12 12 11 11 11 10 10 10 10 10 10 9 9 8 8
29 27 26 24 23 23 23 23 22 22 21 19 19 19 19 18 17 17 16 15 14 13 12 12 11 11 11 10 10 9 9 8 7 8 9 11 12 11 10 9 8 6 5 5 4 4 5 6 7 7 7 8 11 13 15 17 18 19 19 18 17 17 16 15 15 15 14 14 14 13 13 13 13 13 13 12 12 12 11 11 11 10 10 9 8
29 28 26 25 25 24 23 23 22 22 21 20 20 20 19 18 17 17 16 15 14 13 13 12 12 12 11 10 10 9 9 8 8 9 11 11 11 11 10 9 9 8 7 7 7 7 8 9 10 10 11 13 15 16 16 18 18 19 18 18 17 17 16 15 15 15 15 15 15 15 14 14 14 14 14 14 14 14 13 13 13 12 11 10 9
29 28 27 25 26 25 24 23 22 22 21 20 20 20 19 18 17 17 16 15 14 14 13 12 12 12 11 11 10 10 9 8 9 10 11 10 10 11 10 10 10 9 9 9 9 10 12 13 13 14 15 16 16 16 16 17 17 17 17 16 16 16 16 16 16 16 16 16 16 16 16 15 15 15 15 15 15 15 15 14 14 13 13 12 11
29 29 28 26 26 25 25 24 23 22 22 21 20 20 20 19 18 17 16 15 15 14 13 12 12 12 11 11 11 10 9 9 9 10 10 10 10 12 12 12 11 10 10 11 11 13 14 15 16 16 16 16 15 15 16 16 16 16 15 15 15 15 15 16 16 16 16 16 16 16 16 16 16 16 15 15 16 15 15 15 15 14 14 14 13
29 29 27 26 26 25 25 24 23 22 22 21 21 21 20 20 18 17 16 15 15 13 13 12 12 12 11 11 10 9 9 9 10 10 9 10 11 13 14 13 11 11 11 12 13 14 15 16 17 17 16 15 14 14 14 14 14 14 14 14 14 14 14 15 15 15 16 16 16 16 16 16 16 16 15 16 16 15 16 16 15 15 15 14 14
30 29 27 27 26 26 25 24 24 22 22 21 21 21 20 20 19 18 16 15 15 14 13 12 13 12 11 11 10 10 9 9 10 10 10 10 12 14 14 13 12 11 11 12 14 14 15 16 16 16 15 13 12 12 13 13 13 13 13 13 13 13 13 13 13 14 15 15 15 15 15 15 16 16 15 15 16 16 16 16 15 15 15 15 14
30 29 27 27 26 27 26 25 24 23 22 21 21 21 21 20 19 18 16 16 15 14 13 13 13 12 11 10 10 9 9 10 10 10 10 10 12 13 14 13 12 11 12 12 13 14 14 14 15 14 13 11 11 11 11 12 12 12 11 11 11 11 12 12 12 13 13 14 14 14 14 14 15 15 15 15 16 16 16 16 16 16 15 15 15
29 28 27 27 26 27 26 25 24 23 22 21 21 21 21 21 19 18 17 16 15 15 14 13 13 12 11 10 10 9 9 10 10 10 10 10 11 13 13 13 12 11 12 12 12 13 13 13 13 12 11 10 9 9 9 10 10 10 9 8 9 9 9 9 10 11 11 12 12 12 13 14 14 14 14 15 15 16 16 16 16 16 16 15 15
28 27 27 27 26 26 25 25 24 23 22 21 21 20 21 20 20 19 17 16 15 15 14 13 12 12 11 10 9 8 9 10 10 11 11 11 11 13 13 13 13 12 11 11 11 11 12 12 11 10 10 9 7 7 6 6 7 7 8 7 7 7 7 8 8 9 9 9 10 10 11 12 13 13 13 14 14 15 16 16 16 16 16 16 15
27 26 26 26 25 25 25 25 24 23 22 22 21 20 21 20 20 19 17 16 15 15 14 13 12 11 10 9 9 8 9 9 10 10 10 10 11 12 13 13 13 12 11 11 11 11 11 10 10 9 9 8 7 6 4 3 4 5 6 6 6 6 6 7 7 7 8 8 8 9 10 10 11 12 12 13 14 14 15 15 15 15 15 15 15
24 24 25 25 24 25 25 24 23 23 22 22 21 21 20 20 20 19 18 16 15 15 14 13 13 12 10 9 8 8 9 9 10 10 10 10 10 11 13 13 12 12 11 11 11 10 10 10 9 9 8 7 6 5 3 2 1 2 4 4 5 5 6 6 6 6 7 7 8 8 9 9 10 10 11 12 13 14 14 14 14 14 14 14 14
23 24 24 24 23 24 24 23 22 22 22 22 22 21 21 21 20 19 18 16 15 15 14 14 13 12 10 9 9 9 9 9 10 10 9 9 10 10 12 13 12 12 11 11 10 10 10 10 9 8 8 7 6 4 3 2 1 1 2 3 4 5 5 6 6 6 7 8 8 9 9 9 9 10 11 11 12 13 13 13 13 13 13 13 13
24 24 24 23 23 22 22 22 22 23 23 23 22 22 21 21 20 19 17 16 15 15 14 14 13 12 10 10 10 10 10 10 10 10 9 9 9 10 10 11 12 12 11 10 10 10 10 10 9 8 8 7 6 4 3 3 2 3 4 4 5 5 5 6 7 7 7 8 8 9 9 8 9 9 9 10 11 12 12 12 12 13 13 13 13
25 24 23 22 21 20 21 22 23 24 24 24 23 22 21 21 21 19 17 16 16 15 15 14 13 11 10 11 11 10 10 10 9 9 9 8 8 9 9 10 11 11 11 10 10 9 9 9 9 8 8 7 6 5 4 4 4 4 5 6 7 7 6 7 7 8 8 9 9 9 9 8 8 8 9 10 11 12 12 13 13 13 13 13 13
26 24 22 21 20 20 22 23 25 26 26 25 24 23 22 21 21 19 17 17 16 15 15 14 13 11 11 11 11 11 10 9 9 8 8 8 8 8 8 9 10 10 10 10 9 9 8 8 8 8 8 8 7 6 6 6 6 6 6 6 8 8 8 8 9 9 9 10 11 10 10 9 9 9 9 9 11 12 13 14 14 14 14 14 13
26 24 23 22 21 22 23 25 26 27 27 26 24 23 22 22 20 18 17 16 16 15 15 14 12 11 12 12 11 11 10 9 8 8 8 8 7 7 7 8 8 9 10 10 9 9 8 8 7 7 7 8 9 9 8 8 9 9 8 7 9 10 9 10 10 10 11 12 11 10 10 9 9 10 10 10 11 12 13 14 15 15 14 14 13
27 25 24 23 23 24 24 25 26 27 27 26 25 23 23 22 20 18 17 16 16 16 15 14 12 12 12 12 12 11 10 9 9 8 8 8 7 7 7 7 7 8 8 9 8 8 8 7 6 6 6 7 8 9 10 10 11 10 10 10 10 11 10 11 11 11 12 12 11 10 9 9 9 10 10 10 11 11 12 13 13 13 14 14 13
28 27 26 24 24 25 25 25 26 27 27 26 25 24 23 23 20 18 17 16 16 16 15 13 12 12 12 12 12 11 10 9 9 8 8 8 7 6 6 6 6 7 7 7 8 8 8 7 6 6 6 7 8 9 10 10 11 11 11 11 10 11 11 12 12 11 11 12 11 10 10 10 10 11 11 11 11 12 13 14 13 12 13 13 13
30 29 27 26 25 26 26 26 26 27 27 27 26 25 23 22 20 18 17 16 16 17 15 13 12 12 12 12 12 12 11 10 9 8 8 8 7 7 6 6 6 6 7 7 8 8 8 8 7 7 7 8 8 8 8 9 10 11 11 10 9 9 11 11 11 11 12 12 11 11 12 11 12 12 12 12 12 13 14 15 15 14 14 14 13
31 29 28 27 27 26 26 27 27 27 28 28 27 25 23 22 20 18 17 17 16 16 15 14 13 12 12 12 12 12 11 10 9 8 8 7 7 6 6 6 6 6 6 7 7 7 7 8 8 8 7 7 7 7 7 8 9 9 10 10 10 9 10 11 11 12 13 12 12 12 12 12 12 12 13 13 13 14 14 16 17 16 16 15 14
30 29 28 27 26 26 26 27 27 26 27 28 26 25 25 23 21 18 18 17 17 17 16 15 14 12 12 12 12 12 12 11 9 8 8 7 6 6 6 5 5 5 5 5 5 5 6 6 6 6 6 5 5 5 6 7 7 8 8 9 10 10 11 12 12 12 13 12 12 13 12 12 12 12 13 13 14 14 14 16 17 17 17 16 15
30 29 27 26 25 25 26 27 27 26 26 28 27 25 25 25 21 18 18 18 17 17 17 16 14 12 12 12 12 12 11 11 10 9 8 8 7 6 5 5 5 5 4 4 4 4 4 5 5 5 4 4 4 4 4 5 6 6 7 8 9 10 11 12 13 12 12 12 13 13 12 12 12 12 12 13 15 14 14 16 16 17 18 17 16
28 27 26 24 24 26 27 27 27 27 27 28 26 24 24 24 22 20 19 18 17 18 17 15 13 12 13 13 12 12 11 10 10 10 9 8 7 7 6 6 5 5 4 4 3 3 3 3 3 3 4 4 4 5 5 6 7 8 8 9 10 10 11 11 12 12 12 12 12 12 12 11 11 12 13 14 14 13 13 15 16 16 17 16 16
26 25 24 24 25 27 28 28 28 28 27 26 25 23 23 23 22 20 18 17 18 18 17 15 13 13 14 14 13 12 11 11 10 10 9 9 8 8 7 6 6 5 4 4 3 2 2 2 2 3 4 5 6 6 7 7 8 9 10 10 11 11 10 10 10 10 11 11 11 11 11 11 11 12 13 13 13 12 12 14 16 16 17 16 16
25 24 23 24 25 27 28 28 28 27 27 26 24 22 22 22 21 19 18 17 18 18 17 15 14 14 15 14 13 12 11 11 11 11 10 10 9 8 7 7 7 6 5 4 3 2 2 3 3 4 5 6 6 7 8 8 9 9 10 10 10 10 9 9 10 10 10 11 11 11 11 11 11 11 12 12 11 11 11 12 15 17 17 16 16
25 23 23 24 25 27 28 28 27 26 26 26 23 20 19 20 19 19 18 17 18 18 17 15 15 16 15 14 13 12 11 11 11 11 10 10 9 8 8 7 7 7 6 5 4 4 4 4 4 4 5 6 6 7 8 8 8 8 8 9 9 9 9 9 10 10 11 11 12 12 12 11 11 11 10 10 9 10 10 11 13 16 16 16 16
25 24 24 24 25 27 27 27 26 25 26 25 22 20 18 19 19 18 16 16 18 19 17 15 15 16 15 14 12 11 11 11 11 10 10 9 9 8 8 7 6 6 6 5 5 5 5 5 5 5 5 5 6 7 7 7 7 7 7 8 9 9 9 9 10 11 11 12 12 12 11 11 11 10 9 8 8 8 9 10 11 13 15 15 15
25 25 24 25 26 27 27 25 24 24 24 23 21 19 18 18 19 16 15 16 18 19 17 15 16 17 15 13 11 11 10 11 11 10 9 8 7 7 6 5 5 5 5 5 5 6 5 5 5 4 4 4 5 6 7 7 8 8 8 8 9 9 9 10 10 11 11 11 11 11 10 10 10 10 9 8 8 8 9 9 10 11 13 13 14
25 25 25 26 26 25 24 23 22 22 23 23 21 19 17 18 18 16 14 14 17 18 16 15 17 17 14 12 11 11 11 11 11 10 8 7 6 5 4 3 4 4 5 5 5 5 4 3 3 3 3 4 5 6 7 7 8 9 9 9 9 9 9 10 11 11 11 11 11 10 10 10 10 9 9 9 10 10 10 10 10 11 11 11 11
25 25 27 27 25 23 21 20 20 21 22 22 21 20 18 18 17 15 13 13 17 17 15 16 17 16 13 11 11 11 11 10 10 8 7 5 4 3 3 2 3 4 5 5 4 3 2 3 3 4 4 4 5 6 7 7 8 8 8 9 9 9 9 10 11 11 11 11 11 10 10 9 9 8 8 10 11 11 11 11 12 12 12 12 12
26 27 27 26 24 21 18 16 18 20 22 22 22 21 18 17 16 15 13 14 16 15 15 16 16 14 12 10 10 10 10 9 8 7 6 4 3 2 2 2 3 4 5 4 3 2 2 3 4 4 5 5 6 7 8 7 6 7 7 8 8 9 10 11 11 11 11 11 10 9 9 9 8 8 10 11 11 11 12 12 12 13 14 14 15
28 28 26 24 23 21 16 15 17 18 20 22 21 20 18 17 17 15 14 15 16 15 15 15 14 12 11 10 9 8 8 7 6 5 4 3 3 3 2 3 4 4 4 4 3 2 3 4 4 4 4 5 6 7 8 7 7 7 7 8 8 9 10 10 11 11 11 10 9 8 8 8 8 9 11 11 11 11 12 13 13 14 14 15 16
29 28 26 24 22 18 15 15 17 17 19 20 20 20 18 17 17 15 14 17 16 15 15 14 13 11 11 10 8 6 6 5 4 5 4 3 3 3 3 4 5 4 4 4 3 3 3 4 5 5 5 6 7 7 7 8 8 8 8 9 9 9 9 10 10 10 10 9 8 7 8 8 9 11 11 11 11 12 13 14 14 14 15 16 17
29 29 26 23 19 15 15 18 19 19 19 19 20 20 18 17 17 15 14 17 17 16 16 15 13 11 11 9 7 5 5 5 4 5 4 3 3 3 3 4 5 4 4 3 3 3 4 5 5 5 6 6 7 7 8 9 9 9 9 9 9 9 9 9 10 8 7 6 6 7 8 9 10 10 10 11 12 13 14 15 15 15 16 17 18
30 28 23 21 19 16 18 21 23 23 21 20 20 18 17 18 18 16 15 18 19 18 18 17 14 12 11 8 6 5 4 5 4 4 3 3 3 3 4 4 4 4 4 3 3 4 5 5 5 5 6 7 8 9 9 9 10 10 10 10 10 8 8 9 8 6 5 5 6 7 9 10 10 9 10 11 13 14 15 16 16 16 16 16 17
28 24 21 22 22 19 20 23 25 24 22 21 20 17 16 19 21 19 18 19 21 20 19 18 15 13 11 8 6 5 4 4 4 4 4 4 4 4 4 4 5 4 3 3 3 4 5 6 6 6 6 8 9 10 10 10 11 10 9 9 8 7 7 6 6 5 6 7 8 9 10 11 11 11 12 13 14 16 17 17 17 17 17 17 18
27 23 23 27 24 21 21 23 25 24 23 22 22 21 20 22 22 21 20 21 22 21 20 18 16 13 11 9 6 5 4 4 3 4 5 5 5 5 4 4 4 3 3 4 4 4 5 6 7 7 7 8 10 11 10 11 12 12 10 7 6 6 4 3 4 6 7 9 11 11 12 12 13 13 14 15 17 18 19 18 18 17 17 18 18
27 25 26 29 25 21 21 23 24 25 24 24 24 23 21 21 21 20 19 21 22 20 19 17 15 13 11 10 7 5 4 3 3 5 6 6 6 5 4 4 4 3 3 4 4 5 6 7 7 8 9 10 11 12 12 12 13 14 12 9 6 5 3 4 4 6 9 12 13 13 13 14 15 15 16 18 19 20 19 18 17 17 16 17 17
27 26 28 29 25 21 21 24 24 25 25 24 24 22 21 21 21 20 20 21 21 20 19 17 15 14 12 10 7 5 5 4 4 5 5 6 5 5 4 3 4 4 4 4 5 5 6 7 7 7 9 11 13 14 14 13 14 14 12 10 8 5 1 2 3 6 12 12 10 11 12 14 15 17 19 19 18 18 17 15 14 15 15 15 15
28 29 30 30 26 22 23 25 24 25 25 24 23 22 21 21 21 21 22 21 21 20 19 17 15 14 12 10 8 6 6 5 5 4 4 5 4 4 4 4 5 4 4 4 4 5 6 7 8 8 9 10 12 16 16 15 15 14 11 9 9 6 2 2 7 8 7 7 10 13 13 15 18 19 20 19 16 15 14 12 11 12 12 13 13
30 32 32 30 28 25 25 26 25 25 26 25 23 22 22 23 23 24 24 22 21 21 19 18 17 15 12 10 8 7 6 6 5 4 4 5 5 4 4 4 4 4 3 3 3 5 6 8 9 9 10 10 12 15 17 16 16 14 11 8 7 4 3 9 13 8 6 11 13 13 15 18 19 20 19 18 15 12 11 9 9 11 12 13 13
32 34 33 30 29 28 26 26 26 26 27 25 23 22 25 26 26 27 26 24 23 22 20 18 17 15 12 10 9 8 7 6 5 4 4 5 5 4 3 3 3 3 2 3 4 6 7 9 10 11 12 12 12 13 15 16 15 14 12 10 8 6 8 12 11 8 11 15 14 14 19 21 20 20 18 15 12 11 10 9 10 12 13 15 16
34 35 33 30 30 29 26 25 25 27 28 27 25 25 28 29 28 27 27 25 23 22 21 19 17 14 13 11 10 9 8 7 6 5 5 5 5 3 3 3 2 2 2 3 5 7 9 10 11 12 12 12 12 12 13 14 12 11 13 12 12 11 11 11 10 10 12 14 15 18 21 21 21 20 18 14 12 11 11 10 11 13 15 16 17
35 35 32 29 27 24 21 20 23 27 28 28 28 28 30 31 30 27 25 24 23 23 21 19 17 15 14 12 10 9 9 8 8 7 6 5 4 4 3 3 1 1 3 4 6 8 11 12 12 13 12 12 12 12 13 12 9 9 11 11 12 12 13 12 12 12 12 13 15 18 20 21 19 18 17 16 14 12 12 13 15 17 18 20 19
34 33 31 27 23 20 19 19 22 27 29 30 29 29 32 32 29 26 24 24 24 23 21 19 18 15 14 13 11 10 10 9 9 8 6 5 4 4 3 2 1 2 4 5 8 11 12 13 13 13 12 12 12 12 11 11 9 9 10 10 11 11 12 12 12 12 12 12 13 16 21 22 20 17 16 17 16 14 13 14 17 19 21 22 22
34 32 30 28 23 21 20 21 23 27 30 31 29 30 33 30 25 23 22 23 23 23 22 19 17 15 14 13 11 11 10 10 9 7 6 5 4 3 2 1 1 3 5 8 11 13 13 13 12 11 11 11 11 11 10 10 10 11 11 11 11 11 11 12 13 13 12 10 11 15 18 20 21 18 17 17 14 12 11 12 15 17 18 20 21
33 31 31 29 25 22 21 22 25 28 31 32 31 32 31 27 23 21 21 22 22 22 22 19 16 15 14 13 12 11 11 10 8 7 6 5 4 2 1 2 3 5 8 10 12 12 12 11 10 10 10 10 10 10 10 11 11 12 12 12 12 13 13 13 14 13 12 10 12 15 16 20 21 16 17 20 14 9 10 12 15 17 18 19 20
Wind_Direction
178 177 179 175 164 165 166 164 162 155 153 157 162 162 162 158 155 153 153 156 156 156 152 148 143 140 138 135 132 128 126 125 124 122 122 122 124 124 126 132 136 138 140 142 146 146 144 142 137 132 124 108 91 70 43 30 46 88 106 110 108 105 107 105 100 96 95 99 96 92 88 86 84 85 83 79 75 70 67 60 53 50 46 47 52
174 173 178 176 166 166 167 167 164 157 156 159 163 163 163 160 156 155 156 158 157 156 152 149 146 143 139 136 132 128 125 124 122 119 118 119 121 118 119 124 127 130 136 144 154 165 171 171 162 150 134 112 86 58 57 76 94 102 107 108 107 106 107 104 100 97 97 98 92 87 85 85 84 84 83 76 71 64 60 55 48 47 45 46 49
172 171 176 177 168 168 168 169 165 159 159 162 165 165 164 162 159 157 157 159 157 156 153 150 147 144 140 135 132 128 125 123 119 114 113 115 115 114 115 116 116 118 126 138 151 165 177 184 179 166 146 121 91 84 93 98 101 102 104 104 105 106 107 104 99 97 97 95 92 90 87 85 81 77 76 71 66 61 57 56 55 58 56 54 55
175 170 173 176 170 170 171 172 168 161 162 165 167 166 165 163 161 158 158 159 158 155 152 151 148 145 140 136 133 129 125 121 115 108 106 110 113 115 114 112 112 115 122 128 140 156 172 179 172 165 149 123 109 109 108 105 102 101 102 103 104 105 104 100 95 93 91 88 85 82 77 74 70 68 68 65 60 57 57 58 56 57 54 50 48
177 170 172 175 172 173 173 176 172 164 165 168 169 168 166 164 162 159 159 159 157 155 154 153 150 147 141 138 135 130 125 119 112 108 107 110 114 116 114 112 112 111 109 106 109 124 145 151 145 147 136 121 119 117 110 105 104 103 104 105 104 101 99 96 93 90 87 84 80 75 71 67 64 64 63 59 54 53 54 53 52 53 52 47 43
178 171 172 175 173 175 175 178 176 168 168 171 171 170 168 165 163 160 160 160 158 157 157 157 153 148 143 140 136 132 126 120 114 113 113 114 117 117 115 112 110 104 97 90 89 103 120 126 126 128 123 120 121 116 110 106 106 106 106 106 103 100 96 93 90 87 84 80 76 72 68 64 60 59 57 55 53 53 51 50 50 50 50 47 47
179 172 172 176 174 176 176 179 180 172 170 174 173 172 171 168 165 163 162 162 161 160 160 159 155 150 146 142 138 135 128 122 117 117 117 116 120 119 114 111 108 101 93 87 90 104 114 118 119 119 118 119 119 116 112 109 107 107 106 105 102 99 95 90 86 83 80 76 74 71 68 63 59 56 53 52 51 50 49 49 48 46 47 46 46
179 174 173 177 176 177 177 179 182 176 173 176 176 175 174 171 168 166 166 164 164 163 162 161 157 153 150 146 141 137 129 124 120 120 120 115 116 117 115 113 109 103 95 92 98 109 114 117 118 118 118 119 119 117 114 110 107 106 105 102 99 95 92 87 83 80 76 73 72 70 69 65 61 57 53 51 49 47 47 47 47 45 44 43 42
179 175 174 177 178 178 178 180 182 179 175 177 178 177 176 174 172 170 168 168 167 165 165 164 161 157 154 151 145 140 132 127 122 122 122 114 115 118 118 116 114 108 101 100 106 112 116 118 119 119 120 120 119 118 114 109 105 104 101 98 94 90 87 84 80 77 73 71 71 68 67 65 61 57 53 51 49 46 45 45 45 43 42 41 40
178 176 176 178 179 179 180 182 183 182 178 179 179 179 180 178 177 174 172 171 170 168 169 167 164 163 160 155 150 144 135 130 127 126 125 120 119 121 121 121 120 115 109 109 113 117 119 120 120 121 120 120 119 116 112 106 103 100 96 92 90 86 83 80 78 75 71 68 68 65 63 62 59 55 51 49 48 44 44 43 44 43 41 39 38
179 176 176 178 181 180 182 183 184 183 180 181 180 180 182 182 181 178 176 175 173 172 173 172 169 167 164 160 154 147 138 134 132 131 130 126 122 123 125 126 126 122 118 118 122 123 124 124 123 123 122 120 117 113 108 104 101 96 92 89 85 83 80 78 75 71 68 65 64 61 57 55 52 49 46 44 43 41 40 39 38 38 38 38 36
179 176 177 179 182 182 184 185 185 185 182 183 182 182 184 185 184 182 180 178 177 177 178 176 174 171 168 163 158 152 145 139 136 135 134 131 127 127 130 132 131 129 127 126 130 130 130 130 129 127 125 123 118 111 103 99 97 93 91 86 81 78 75 74 74 67 63 61 59 57 50 46 44 42 42 42 40 37 35 33 32 31 31 33 32
179 178 179 181 183 184 186 187 187 186 184 185 184 184 186 187 187 186 184 182 181 181 181 181 178 176 172 167 162 157 149 141 139 138 138 137 136 134 134 137 137 136 135 134 137 138 137 136 135 132 130 128 121 110 95 86 88 92 90 83 77 74 69 67 70 64 58 54 51 50 46 43 40 37 38 39 36 33 31 29 27 25 25 25 25
180 179 181 184 185 186 188 189 189 189 187 187 187 186 188 189 189 189 188 187 187 185 184 184 181 179 176 171 164 158 149 143 142 139 140 141 142 140 139 142 143 143 143 141 145 147 147 145 142 139 137 134 128 117 96 73 68 80 79 69 67 67 61 60 60 56 50 44 39 37 37 39 37 32 30 30 28 28 27 26 24 21 21 20 20
182 180 183 187 188 187 189 191 192 191 190 189 190 190 190 192 193 192 191 191 190 188 188 186 183 180 177 173 165 157 150 146 145 142 141 142 145 146 145 147 148 148 148 148 150 154 156 155 152 147 146 145 144 140 126 106 50 54 51 43 42 44 43 43 43 40 34 28 25 21 24 30 32 28 22 21 22 24 24 23 21 19 17 16 14
183 184 186 190 191 190 190 193 195 193 193 193 193 192 192 194 196 194 193 194 192 190 190 188 184 181 178 173 164 157 152 149 148 145 144 145 147 151 151 151 152 153 153 153 154 158 163 163 162 158 158 160 162 169 167 178 255 341 0 4 6 10 16 20 20 19 18 15 15 14 15 17 18 20 17 16 17 18 18 18 17 15 13 11 9
183 189 190 193 194 193 194 196 197 196 195 195 195 195 195 196 197 195 194 195 194 193 191 189 185 182 179 172 164 157 154 153 152 148 148 148 150 153 155 155 156 157 157 158 159 161 168 171 173 171 170 173 181 194 206 216 248 291 314 325 333 343 348 353 355 355 358 1 5 8 6 3 2 8 10 8 9 9 9 10 11 11 8 5 3
186 192 193 196 197 198 200 199 199 196 197 197 196 197 197 198 197 194 194 196 195 194 193 191 187 184 178 170 164 158 158 158 154 151 149 150 152 154 156 158 159 161 162 161 163 165 171 178 181 184 184 187 195 212 230 239 245 262 288 306 314 321 327 331 335 336 339 344 349 351 348 346 347 353 358 358 357 358 359 1 2 3 1 359 357
189 192 195 198 200 202 204 204 201 198 199 198 197 197 198 199 197 194 195 197 196 195 195 193 190 184 177 170 164 161 161 159 154 151 149 150 152 154 156 158 161 163 166 166 168 169 172 180 186 192 197 202 209 220 233 243 247 251 263 285 301 305 311 317 321 324 326 332 335 334 332 333 335 339 343 345 346 348 352 356 357 356 355 354 352
190 194 197 199 201 206 207 206 203 200 200 199 198 196 198 197 195 195 196 197 196 197 198 196 191 184 177 169 165 164 161 158 154 151 149 151 152 152 155 157 161 165 169 172 173 173 176 180 184 191 199 209 217 224 231 240 248 253 256 267 285 289 295 303 310 315 319 323 325 323 323 326 330 330 331 333 337 340 346 352 354 353 351 349 348
191 195 198 200 204 207 209 209 206 203 201 199 198 197 195 193 193 195 196 196 197 198 199 198 193 185 178 170 167 165 161 158 156 154 151 151 152 151 154 157 160 164 168 173 176 177 180 182 184 187 193 204 215 224 231 238 247 254 258 267 276 276 280 290 300 308 313 316 316 314 315 321 325 327 327 327 330 332 336 342 347 349 347 343 340
191 195 197 201 205 209 209 211 209 204 202 199 198 197 193 189 191 193 193 195 197 201 201 199 195 187 180 173 169 166 163 162 160 157 153 150 151 151 155 160 163 163 165 169 175 179 182 183 184 188 194 204 212 222 230 239 249 256 261 270 272 267 270 280 291 300 306 307 307 307 309 314 318 322 324 323 325 325 325 328 331 332 335 334 332
193 195 197 201 206 209 210 212 211 206 202 200 199 196 189 187 189 189 190 192 196 202 201 199 197 189 183 175 170 169 168 168 168 164 158 155 153 154 158 163 167 168 169 171 175 180 183 186 190 195 202 210 218 227 235 242 250 259 265 269 267 263 267 274 283 292 298 302 306 308 309 312 313 314 316 319 320 320 318 318 323 325 325 325 326
194 196 198 201 206 209 211 213 210 207 202 199 200 195 189 188 189 189 189 191 195 199 199 200 197 191 185 177 173 172 172 172 172 170 166 162 161 162 162 163 166 171 177 182 184 186 188 193 199 206 213 222 231 237 240 245 251 259 265 265 264 266 271 276 281 287 292 298 304 309 310 311 312 309 309 312 315 317 312 311 323 329 324 320 318
195 197 200 203 206 210 212 213 209 205 202 199 199 197 193 192 191 189 189 193 197 197 198 200 196 192 185 178 176 175 175 174 174 175 172 169 168 169 166 162 162 167 174 181 190 197 199 204 212 221 229 236 242 246 246 249 255 262 265 263 264 269 276 280 283 287 291 295 301 305 308 309 310 307 305 307 310 313 307 308 323 328 325 320 314
196 199 202 205 208 211 213 212 207 204 203 201 200 198 196 195 193 190 192 196 197 195 198 199 194 190 184 179 178 177 178 177 176 177 175 171 171 171 165 158 154 155 158 160 171 185 197 211 225 232 237 245 253 258 258 258 262 270 272 270 272 275 279 284 288 290 292 295 299 302 305 307 308 306 305 305 306 308 303 307 320 323 324 323 317
199 202 204 206 209 212 213 211 208 207 205 202 199 198 196 195 196 194 196 197 195 196 199 196 191 186 181 177 176 177 178 177 177 176 174 170 169 167 159 151 148 143 140 136 138 151 174 202 219 230 240 254 261 267 270 271 272 276 280 282 286 289 291 295 296 297 298 301 302 302 303 304 305 303 303 303 303 304 302 307 314 317 321 323 321
203 205 206 208 211 213 213 211 211 210 206 201 198 198 196 195 197 196 197 198 196 198 199 194 189 183 178 175 174 176 177 175 175 175 173 170 166 162 158 155 153 145 138 135 133 142 166 197 225 245 257 265 270 277 279 282 284 285 289 292 297 301 305 308 307 308 311 313 312 311 310 307 304 301 301 302 302 303 303 307 311 316 320 320 320
207 208 208 210 212 214 214 213 212 210 205 201 199 197 196 195 197 198 200 201 200 200 198 193 187 181 177 174 174 174 174 173 174 175 173 169 166 162 162 163 165 163 159 160 167 185 217 237 252 262 270 277 281 284 284 288 292 294 297 301 307 312 317 319 318 319 321 322 322 321 317 312 307 303 301 303 305 305 306 307 309 314 318 319 318
210 209 210 211 213 215 216 215 212 209 207 204 200 196 194 196 197 200 203 202 200 199 197 194 187 181 178 175 175 174 173 173 174 175 173 170 168 166 169 171 174 178 177 184 199 212 232 246 257 265 275 283 286 289 290 292 296 301 306 310 314 317 322 324 322 323 324 325 326 326 323 319 314 308 303 304 307 309 310 311 311 312 315 318 319
211 210 210 212 214 216 216 216 212 209 210 207 201 195 195 198 200 200 202 201 198 197 196 194 188 182 180 178 177 176 174 175 177 176 174 173 173 175 178 178 181 186 186 190 203 217 232 242 252 261 270 280 288 294 299 304 310 315 317 317 317 318 322 323 322 322 324 325 326 327 328 325 323 318 313 310 313 316 316 317 316 314 314 317 319
211 210 210 213 215 216 216 216 214 212 211 208 202 196 197 202 203 201 201 203 198 196 197 193 186 182 180 179 179 179 177 176 177 176 175 175 178 183 185 186 190 198 200 200 209 221 235 247 259 269 282 292 297 301 309 319 324 324 325 325 323 322 323 321 320 321 322 324 325 327 329 327 327 326 325 324 323 324 323 323 321 318 319 319 319
210 210 211 213 215 216 217 217 216 214 212 211 205 199 201 205 204 203 203 203 198 197 198 190 182 179 177 177 180 181 178 175 176 176 176 177 181 186 186 194 204 210 215 216 220 226 245 268 289 302 308 305 301 305 317 327 329 328 331 333 330 328 324 322 322 323 323 325 327 329 329 328 327 327 327 327 327 325 322 320 320 319 320 322 321
211 212 212 214 215 216 217 219 219 217 213 212 209 204 207 207 205 205 204 200 197 199 197 187 179 177 176 175 177 179 177 175 176 178 181 182 183 187 187 207 223 225 229 236 239 251 288 298 310 316 313 309 307 312 322 327 327 329 332 332 331 328 324 325 325 323 323 324 329 332 331 328 324 321 322 323 323 320 318 316 316 316 316 317 317
213 214 214 214 217 217 217 220 222 219 213 213 212 212 213 209 208 211 207 200 198 198 193 185 180 177 178 180 180 180 176 174 178 183 188 188 186 195 200 222 238 242 244 248 259 294 316 308 312 315 313 312 312 317 322 324 326 327 329 330 328 323 323 325 323 321 322 325 330 330 327 324 317 315 318 318 317 314 313 313 312 313 313 313 313
215 217 216 215 216 217 218 220 225 221 216 216 215 216 216 211 212 217 211 202 200 197 191 186 184 181 179 182 185 182 177 174 176 182 184 184 194 212 221 240 250 260 264 261 275 303 308 305 302 298 303 307 310 316 320 323 327 329 331 329 322 318 320 322 321 320 323 328 330 326 321 318 312 312 314 313 311 309 308 308 308 308 309 309 309
216 218 216 214 216 218 219 222 226 223 219 220 216 216 215 209 213 219 212 204 202 197 193 191 191 184 181 185 184 175 171 164 161 166 167 173 196 221 230 238 247 262 271 270 276 284 288 291 291 295 298 303 311 315 318 322 327 331 333 329 322 318 319 321 321 323 327 331 329 322 317 313 308 307 310 310 309 309 307 305 304 303 303 303 302
217 218 217 218 219 214 211 214 219 217 216 217 215 214 212 208 212 215 208 204 201 197 194 195 194 188 188 190 178 165 158 147 143 149 155 174 203 222 227 231 241 253 264 269 278 286 291 288 290 301 302 305 313 317 323 327 328 331 335 332 324 321 324 323 322 322 326 329 323 318 315 311 308 305 307 309 310 310 308 305 303 302 301 300 300
218 219 221 225 222 211 206 211 214 212 210 210 210 209 205 206 210 208 202 199 198 197 194 193 193 193 195 190 177 170 157 148 148 150 164 196 217 228 231 238 247 256 269 284 301 306 303 299 301 306 307 311 318 324 330 331 330 333 337 332 326 327 326 316 311 310 314 319 316 315 317 312 305 303 305 309 311 310 307 304 303 303 301 301 300
220 220 223 226 221 211 208 212 215 213 209 207 206 201 198 204 207 202 196 193 194 195 194 192 192 195 195 187 181 178 163 160 167 180 197 212 226 237 242 254 259 261 276 292 303 308 308 309 310 313 317 320 325 330 332 331 329 330 336 338 335 333 325 312 301 288 288 301 308 308 309 305 299 299 304 311 314 311 306 303 303 302 299 298 296
222 219 221 224 220 212 210 211 214 213 210 208 206 205 203 204 205 201 195 191 193 196 195 193 193 194 191 185 181 175 171 177 193 216 220 218 227 237 246 256 259 261 273 287 298 307 313 315 313 317 323 325 327 331 332 331 330 333 342 354 352 340 327 300 284 274 277 292 300 300 300 299 297 299 305 314 317 314 310 306 304 303 301 298 295
222 218 219 224 221 215 211 207 210 213 212 211 211 211 206 202 201 201 199 193 194 199 199 199 198 195 191 186 181 180 186 198 224 233 224 219 225 237 247 250 254 264 280 294 303 307 314 316 316 321 326 328 330 331 334 335 336 339 345 353 358 355 322 289 269 265 288 295 291 293 298 300 301 306 311 315 318 316 313 311 310 308 306 303 299
224 220 219 223 222 216 209 204 209 214 213 212 213 212 207 205 205 204 201 196 196 202 206 205 202 196 193 190 189 195 202 216 237 232 217 215 222 232 241 245 254 270 290 301 304 304 310 316 322 329 330 331 330 330 333 335 339 343 347 348 351 1 355 249 245 283 299 296 289 294 301 308 313 317 320 320 322 321 316 316 315 310 307 306 303
222 220 219 221 220 215 207 201 207 214 212 210 210 210 208 207 207 202 198 195 199 207 209 206 203 199 196 196 200 204 207 220 235 223 206 207 208 219 228 237 254 270 286 295 300 306 316 324 327 332 333 331 327 328 332 334 338 345 353 352 347 4 64 284 313 323 318 312 313 313 313 319 324 327 329 331 333 325 317 321 323 312 306 306 304
219 221 221 219 217 215 210 202 204 209 210 207 205 207 205 201 200 198 195 197 206 212 209 206 205 203 200 202 206 203 202 216 226 210 199 203 199 202 213 227 247 259 272 288 307 317 325 329 327 328 330 328 325 327 329 332 336 343 354 358 351 358 337 325 336 349 338 326 324 323 326 330 335 340 343 345 345 337 328 334 333 319 309 306 305
222 225 223 218 216 216 211 205 204 206 208 206 206 211 206 199 197 194 193 200 208 210 209 209 208 206 205 207 206 198 199 210 213 205 206 207 195 189 202 217 235 249 277 311 322 326 327 328 325 324 324 323 325 326 327 330 334 340 348 352 351 342 332 337 345 336 326 330 334 334 337 345 352 355 358 358 355 352 349 344 332 321 313 311 309
224 229 226 218 217 218 213 209 209 209 208 208 210 211 205 198 195 193 193 198 204 207 211 211 209 211 211 207 201 195 198 204 203 204 211 209 195 187 200 211 225 258 316 326 326 326 325 323 321 318 319 321 325 326 326 329 333 338 342 344 346 346 345 347 344 335 330 332 336 337 341 352 360 1 5 6 2 357 356 348 333 327 325 323 319
227 230 226 216 217 221 218 215 218 217 213 213 214 210 203 197 194 192 193 197 203 208 211 210 209 212 210 203 196 194 196 198 198 202 206 199 188 188 196 208 229 306 326 322 320 320 319 317 315 315 318 323 326 328 330 333 335 335 341 346 348 351 353 352 350 346 335 326 332 338 341 350 359 2 2 2 0 357 355 348 338 334 334 330 327
228 227 219 217 220 220 215 213 220 222 219 218 218 212 205 201 197 195 194 196 203 209 211 210 208 206 203 198 193 195 198 196 195 197 193 180 177 187 191 197 246 319 320 319 318 315 313 313 313 315 320 326 331 335 337 339 340 344 352 358 359 359 358 356 353 351 344 334 333 338 343 350 359 2 1 0 356 350 350 345 337 335 333 330 329
227 221 217 223 224 215 210 209 216 223 222 221 220 213 206 202 201 202 199 195 198 207 211 209 206 200 198 197 193 196 199 197 195 188 179 176 181 188 182 193 268 308 317 320 316 312 311 312 315 320 327 335 341 346 347 347 353 0 5 5 4 4 3 1 358 358 359 350 339 342 346 349 354 358 359 0 358 348 346 342 335 333 330 328 327
224 218 217 223 222 216 211 208 216 225 226 223 218 211 206 203 204 206 204 197 195 205 210 206 203 200 200 199 194 195 198 197 193 181 176 179 179 184 214 277 311 328 329 323 316 312 312 315 322 331 341 350 355 357 358 360 5 7 5 4 5 7 8 6 5 6 7 359 349 349 346 346 352 353 351 359 9 1 343 340 340 339 338 335 330